FIN7F EFHK-LIRQ

Flight info

Callsign FIN7F
Flight time 2h 59m
Altitude 36000
Route VALOX Y117 ROSAX DCT ANFEV DCT PENOR DCT RASAN DCT ODLIV/N0451F380 DCT PINQI DCT MALUG/N0451F370 DCT OTGIG DCT SOVUB DCT NIMUM DCT SUKOM DCT GOXIN Q58 BIKTU
Aircraft A319/M-SDE3FGHIRWY/LB1

Departure

Time 2026-05-06 12:57
Airport Helsinki Vantaa Airport (EFHK)

Arrival

Time 2026-05-06 15:56
Airport Florence Airport, Peretola (LIRQ)
Time Latitude Longitude Altitude Speed Heading
2026-05-06 12:02 60.31799 24.96395 167 ft 0 kts 137°
2026-05-06 12:41 60.31800 24.96394 166 ft 1 kts 137°
2026-05-06 12:41 60.31811 24.96374 166 ft 3 kts 137°
2026-05-06 12:42 60.31826 24.96346 166 ft 3 kts 137°
2026-05-06 12:42 60.31837 24.96324 166 ft 3 kts 143°
2026-05-06 12:42 60.31851 24.96309 166 ft 3 kts 196°
2026-05-06 12:42 60.31864 24.96328 166 ft 3 kts 238°
2026-05-06 12:43 60.31874 24.96362 166 ft 2 kts 232°
2026-05-06 12:43 60.31878 24.96372 166 ft 0 kts 227°
2026-05-06 12:47 60.31869 24.96352 166 ft 4 kts 230°
2026-05-06 12:47 60.31853 24.96252 166 ft 11 kts 268°
2026-05-06 12:48 60.31885 24.96107 167 ft 8 kts 316°
2026-05-06 12:48 60.31897 24.96085 167 ft 0 kts 317°
2026-05-06 12:51 60.31900 24.96080 167 ft 2 kts 317°
2026-05-06 12:51 60.31926 24.96032 168 ft 9 kts 317°
2026-05-06 12:52 60.31977 24.95936 172 ft 12 kts 317°
2026-05-06 12:52 60.32059 24.95785 174 ft 20 kts 317°
2026-05-06 12:52 60.32184 24.95551 173 ft 27 kts 317°
2026-05-06 12:52 60.32320 24.95305 176 ft 25 kts 323°
2026-05-06 12:53 60.32475 24.95183 179 ft 23 kts 342°
2026-05-06 12:53 60.32625 24.95086 180 ft 22 kts 342°
2026-05-06 12:53 60.32776 24.94989 177 ft 24 kts 342°
2026-05-06 12:53 60.32921 24.94862 176 ft 20 kts 316°
2026-05-06 12:54 60.33014 24.94689 180 ft 17 kts 317°
2026-05-06 12:54 60.33088 24.94552 191 ft 12 kts 317°
2026-05-06 12:54 60.33133 24.94452 190 ft 9 kts 285°
2026-05-06 12:54 60.33108 24.94377 195 ft 0 kts 227°
2026-05-06 12:56 60.33096 24.94351 194 ft 13 kts 227°
2026-05-06 12:56 60.32851 24.93808 182 ft 88 kts 227°
2026-05-06 12:56 60.32302 24.92598 170 ft 143 kts 227°
2026-05-06 12:56 60.31567 24.90988 543 ft 156 kts 227°
2026-05-06 12:57 60.30840 24.89388 1303 ft 153 kts 229°
2026-05-06 12:57 60.30208 24.87537 1746 ft 170 kts 247°
2026-05-06 12:57 60.29861 24.85149 2049 ft 193 kts 265°
2026-05-06 12:57 60.29945 24.82298 2420 ft 216 kts 284°
2026-05-06 12:58 60.30304 24.79184 2945 ft 238 kts 277°
2026-05-06 12:58 60.30030 24.75838 3686 ft 250 kts 250°
2026-05-06 12:58 60.29368 24.72564 4644 ft 254 kts 250°
2026-05-06 12:58 60.28684 24.69273 5635 ft 257 kts 249°
2026-05-06 12:59 60.27983 24.65916 6593 ft 261 kts 247°
2026-05-06 12:59 60.26930 24.62899 7440 ft 270 kts 224°
2026-05-06 12:59 60.25304 24.60950 8354 ft 275 kts 207°
2026-05-06 12:59 60.23555 24.59339 9287 ft 278 kts 206°
2026-05-06 13:00 60.21784 24.57736 10182 ft 281 kts 207°
2026-05-06 13:00 60.19943 24.56064 10581 ft 302 kts 207°
2026-05-06 13:00 60.17956 24.54243 10820 ft 325 kts 207°
2026-05-06 13:00 60.15845 24.52305 11244 ft 339 kts 208°
2026-05-06 13:01 60.13683 24.50332 11992 ft 343 kts 208°
2026-05-06 13:01 60.11527 24.48375 12795 ft 345 kts 209°
2026-05-06 13:01 60.09333 24.46388 13601 ft 347 kts 210°
2026-05-06 13:01 60.07125 24.44393 14321 ft 348 kts 210°
2026-05-06 13:02 60.04912 24.42392 15012 ft 350 kts 211°
2026-05-06 13:02 60.03415 24.41034 15474 ft 351 kts 211°
2026-05-06 13:02 60.01215 24.39038 16171 ft 352 kts 211°
2026-05-06 13:02 59.98987 24.37018 16873 ft 353 kts 211°
2026-05-06 13:03 59.96741 24.34988 17526 ft 354 kts 211°
2026-05-06 13:03 59.94488 24.32957 18195 ft 356 kts 210°
2026-05-06 13:03 59.92224 24.30920 18776 ft 358 kts 211°
2026-05-06 13:03 59.89946 24.28875 19348 ft 360 kts 211°
2026-05-06 13:04 59.87659 24.26821 19918 ft 361 kts 211°
2026-05-06 13:04 59.85361 24.24760 20472 ft 363 kts 211°
2026-05-06 13:04 59.83050 24.22689 21013 ft 365 kts 211°
2026-05-06 13:04 59.80730 24.20617 21533 ft 367 kts 212°
2026-05-06 13:05 59.78397 24.18539 22044 ft 368 kts 212°
2026-05-06 13:05 59.76046 24.16449 22547 ft 370 kts 212°
2026-05-06 13:05 59.73732 24.14351 23029 ft 369 kts 215°
2026-05-06 13:05 59.71581 24.11658 23504 ft 364 kts 223°
2026-05-06 13:06 59.69521 24.08724 23879 ft 366 kts 221°
2026-05-06 13:06 59.67448 24.05783 24273 ft 367 kts 221°
2026-05-06 13:06 59.65366 24.02847 24679 ft 368 kts 221°
2026-05-06 13:06 59.63282 23.99914 25078 ft 369 kts 221°
2026-05-06 13:07 59.61189 23.96966 25486 ft 370 kts 221°
2026-05-06 13:07 59.59091 23.94009 25887 ft 371 kts 221°
2026-05-06 13:07 59.56986 23.91046 26268 ft 372 kts 221°
2026-05-06 13:07 59.54874 23.88079 26649 ft 373 kts 220°
2026-05-06 13:08 59.52753 23.85112 27021 ft 374 kts 220°
2026-05-06 13:08 59.50621 23.82130 27391 ft 376 kts 220°
2026-05-06 13:08 59.48495 23.79145 27738 ft 376 kts 221°
2026-05-06 13:08 59.46552 23.75741 28087 ft 373 kts 230°
2026-05-06 13:09 59.44765 23.72037 28425 ft 374 kts 229°
2026-05-06 13:09 59.42967 23.68332 28764 ft 375 kts 229°
2026-05-06 13:09 59.41157 23.64625 29094 ft 376 kts 229°
2026-05-06 13:09 59.39340 23.60914 29417 ft 378 kts 229°
2026-05-06 13:10 59.37544 23.57256 29837 ft 376 kts 229°
2026-05-06 13:10 59.35731 23.53575 30283 ft 374 kts 229°
2026-05-06 13:10 59.33926 23.49916 30673 ft 372 kts 229°
2026-05-06 13:10 59.32131 23.46270 31043 ft 371 kts 229°
2026-05-06 13:11 59.30343 23.42638 31412 ft 370 kts 229°
2026-05-06 13:11 59.28558 23.39023 31788 ft 369 kts 229°
2026-05-06 13:11 59.26772 23.35416 32160 ft 368 kts 229°
2026-05-06 13:11 59.24991 23.31826 32539 ft 367 kts 229°
2026-05-06 13:12 59.23216 23.28258 32845 ft 366 kts 229°
2026-05-06 13:12 59.21436 23.24680 33092 ft 368 kts 229°
2026-05-06 13:12 59.19653 23.21100 33396 ft 369 kts 229°
2026-05-06 13:12 59.17867 23.17518 33748 ft 368 kts 229°
2026-05-06 13:13 59.16083 23.13946 34110 ft 367 kts 229°
2026-05-06 13:13 59.14301 23.10385 34387 ft 367 kts 229°
2026-05-06 13:13 59.12512 23.06820 34622 ft 369 kts 229°
2026-05-06 13:13 59.10712 23.03237 34841 ft 370 kts 229°
2026-05-06 13:14 59.08908 22.99648 35057 ft 372 kts 229°
2026-05-06 13:14 59.07101 22.96057 35262 ft 373 kts 229°
2026-05-06 13:14 59.05305 22.92493 35482 ft 374 kts 229°
2026-05-06 13:14 59.03475 22.88864 35673 ft 376 kts 229°
2026-05-06 13:15 59.01642 22.85237 35875 ft 377 kts 229°
2026-05-06 13:15 58.99798 22.81596 36025 ft 379 kts 228°
2026-05-06 13:15 58.97946 22.77947 36057 ft 380 kts 228°
2026-05-06 13:16 58.94226 22.70649 36057 ft 381 kts 228°
2026-05-06 13:16 58.90499 22.63356 36053 ft 381 kts 228°
2026-05-06 13:17 58.86767 22.56080 36049 ft 381 kts 228°
2026-05-06 13:17 58.83034 22.48809 36035 ft 381 kts 228°
2026-05-06 13:18 58.79291 22.41545 36005 ft 381 kts 227°
2026-05-06 13:18 58.75567 22.34351 36011 ft 382 kts 227°
2026-05-06 13:19 58.71810 22.27110 36018 ft 382 kts 227°
2026-05-06 13:19 58.68032 22.19858 36022 ft 383 kts 227°
2026-05-06 13:20 58.64262 22.12642 36022 ft 383 kts 227°
2026-05-06 13:20 58.60481 22.05443 36026 ft 383 kts 227°
2026-05-06 13:21 58.56695 21.98238 35993 ft 383 kts 226°
2026-05-06 13:21 58.52932 21.91090 36002 ft 384 kts 226°
2026-05-06 13:22 58.49128 21.83905 36010 ft 385 kts 226°
2026-05-06 13:22 58.45316 21.76738 36013 ft 385 kts 226°
2026-05-06 13:23 58.41474 21.69518 36011 ft 385 kts 226°
2026-05-06 13:23 58.37679 21.62405 36013 ft 385 kts 226°
2026-05-06 13:24 58.33842 21.55257 36016 ft 386 kts 225°
2026-05-06 13:24 58.29999 21.48121 36015 ft 386 kts 225°
2026-05-06 13:25 58.26143 21.40975 36015 ft 387 kts 225°
2026-05-06 13:25 58.22286 21.33836 36017 ft 387 kts 225°
2026-05-06 13:26 58.18419 21.26707 36017 ft 388 kts 225°
2026-05-06 13:26 58.14542 21.19594 36019 ft 388 kts 225°
2026-05-06 13:27 58.10659 21.12487 35990 ft 389 kts 225°
2026-05-06 13:27 58.06761 21.05369 35992 ft 390 kts 225°
2026-05-06 13:28 58.02881 20.98320 35997 ft 390 kts 225°
2026-05-06 13:28 57.98962 20.91220 36005 ft 391 kts 225°
2026-05-06 13:29 57.95040 20.84122 36010 ft 391 kts 225°
2026-05-06 13:29 57.91110 20.77041 36014 ft 391 kts 224°
2026-05-06 13:30 57.87171 20.69979 35988 ft 392 kts 224°
2026-05-06 13:30 57.83222 20.62918 35992 ft 392 kts 224°
2026-05-06 13:31 57.79265 20.55859 35996 ft 393 kts 224°
2026-05-06 13:31 57.75297 20.48801 35993 ft 393 kts 224°
2026-05-06 13:32 57.71333 20.41761 35986 ft 393 kts 224°
2026-05-06 13:32 57.67360 20.34735 35977 ft 393 kts 224°
2026-05-06 13:33 57.63375 20.27726 35986 ft 394 kts 223°
2026-05-06 13:33 57.59379 20.20720 35982 ft 394 kts 223°
2026-05-06 13:34 57.55372 20.13706 35981 ft 395 kts 223°
2026-05-06 13:34 57.51367 20.06704 35977 ft 395 kts 223°
2026-05-06 13:35 57.47378 19.99767 35988 ft 395 kts 223°
2026-05-06 13:35 57.43353 19.92800 35954 ft 396 kts 222°
2026-05-06 13:36 57.39316 19.85839 35963 ft 397 kts 222°
2026-05-06 13:36 57.35274 19.78870 35961 ft 397 kts 222°
2026-05-06 13:37 57.31226 19.71909 35969 ft 397 kts 222°
2026-05-06 13:37 57.27169 19.64971 35975 ft 397 kts 222°
2026-05-06 13:38 57.23107 19.58046 35969 ft 397 kts 222°
2026-05-06 13:38 57.19039 19.51119 35972 ft 397 kts 222°
2026-05-06 13:39 57.14968 19.44202 35977 ft 398 kts 222°
2026-05-06 13:39 57.10892 19.37323 35978 ft 397 kts 222°
2026-05-06 13:40 57.06818 19.30452 35971 ft 397 kts 222°
2026-05-06 13:40 57.02739 19.23585 35969 ft 397 kts 222°
2026-05-06 13:41 56.98661 19.16764 35963 ft 397 kts 221°
2026-05-06 13:41 56.94586 19.09982 35965 ft 398 kts 221°
2026-05-06 13:42 56.90478 19.03138 35955 ft 399 kts 221°
2026-05-06 13:42 56.86364 18.96304 35958 ft 400 kts 221°
2026-05-06 13:43 56.82239 18.89472 35957 ft 401 kts 221°
2026-05-06 13:43 56.78097 18.82639 35950 ft 401 kts 221°
2026-05-06 13:44 56.73947 18.75819 35939 ft 402 kts 220°
2026-05-06 13:44 56.69786 18.68996 35931 ft 403 kts 220°
2026-05-06 13:45 56.65608 18.62167 35936 ft 404 kts 220°
2026-05-06 13:45 56.59327 18.51950 35938 ft 404 kts 220°
2026-05-06 13:46 56.55127 18.45158 35940 ft 405 kts 220°
2026-05-06 13:46 56.50946 18.38402 35915 ft 406 kts 220°
2026-05-06 13:47 56.46716 18.31574 35919 ft 408 kts 220°
2026-05-06 13:47 56.42464 18.24737 35923 ft 410 kts 220°
2026-05-06 13:48 56.38188 18.17914 35928 ft 411 kts 220°
2026-05-06 13:48 56.33901 18.11082 35927 ft 411 kts 220°
2026-05-06 13:49 56.29617 18.04255 35944 ft 412 kts 220°
2026-05-06 13:49 56.25320 17.97424 35931 ft 413 kts 220°
2026-05-06 13:50 56.21008 17.90590 35932 ft 413 kts 220°
2026-05-06 13:50 56.17417 17.84927 35932 ft 414 kts 220°
2026-05-06 13:51 56.13079 17.78112 35935 ft 414 kts 220°
2026-05-06 13:51 56.08742 17.71312 35925 ft 415 kts 220°
2026-05-06 13:52 56.03685 17.63416 35914 ft 416 kts 220°
2026-05-06 13:52 56.00028 17.57718 35918 ft 416 kts 220°
2026-05-06 13:53 55.95657 17.50931 35925 ft 417 kts 220°
2026-05-06 13:53 55.91303 17.44202 35916 ft 417 kts 220°
2026-05-06 13:54 55.86910 17.37425 35912 ft 418 kts 220°
2026-05-06 13:54 55.82501 17.30647 35909 ft 419 kts 220°
2026-05-06 13:55 55.77829 17.24490 35912 ft 419 kts 207°
2026-05-06 13:55 55.72370 17.20895 35909 ft 420 kts 198°
2026-05-06 13:56 55.66794 17.17799 35908 ft 420 kts 198°
2026-05-06 13:56 55.61202 17.14733 35901 ft 421 kts 197°
2026-05-06 13:57 55.55593 17.11924 35903 ft 422 kts 196°
2026-05-06 13:57 55.49919 17.09171 35900 ft 423 kts 196°
2026-05-06 13:58 55.44242 17.06383 35903 ft 424 kts 197°
2026-05-06 13:58 55.38565 17.03573 35902 ft 424 kts 197°
2026-05-06 13:59 55.32887 17.00761 35897 ft 424 kts 197°
2026-05-06 13:59 55.27205 16.97967 35900 ft 424 kts 197°
2026-05-06 14:00 55.21517 16.95180 35907 ft 424 kts 197°
2026-05-06 14:00 55.15826 16.92393 35910 ft 424 kts 197°
2026-05-06 14:01 55.10133 16.89625 35897 ft 424 kts 197°
2026-05-06 14:01 55.04480 16.86884 35896 ft 424 kts 197°
2026-05-06 14:02 54.98796 16.84128 35901 ft 424 kts 197°
2026-05-06 14:02 54.93108 16.81382 35903 ft 424 kts 197°
2026-05-06 14:03 54.87413 16.78634 35897 ft 424 kts 197°
2026-05-06 14:03 54.81724 16.75892 35894 ft 424 kts 197°
2026-05-06 14:04 54.76069 16.73188 35891 ft 424 kts 197°
2026-05-06 14:04 54.70377 16.70470 35883 ft 424 kts 197°
2026-05-06 14:05 54.64690 16.67761 35880 ft 424 kts 197°
2026-05-06 14:05 54.59004 16.65053 35863 ft 424 kts 197°
2026-05-06 14:06 54.53317 16.62362 35864 ft 424 kts 197°
2026-05-06 14:06 54.47627 16.59687 35860 ft 424 kts 197°
2026-05-06 14:07 54.41932 16.57008 35861 ft 424 kts 197°
2026-05-06 14:07 54.36253 16.54327 35851 ft 424 kts 198°
2026-05-06 14:08 54.30597 16.51678 35855 ft 423 kts 198°
2026-05-06 14:08 54.24923 16.49046 35859 ft 422 kts 198°
2026-05-06 14:09 54.19245 16.46408 35853 ft 422 kts 198°
2026-05-06 14:09 54.13575 16.43775 35836 ft 422 kts 198°
2026-05-06 14:10 54.07910 16.41153 35842 ft 421 kts 198°
2026-05-06 14:10 54.02298 16.38562 35837 ft 420 kts 198°
2026-05-06 14:11 53.96653 16.35963 35833 ft 420 kts 198°
2026-05-06 14:11 53.91012 16.33373 35825 ft 420 kts 198°
2026-05-06 14:12 53.85368 16.30788 35816 ft 419 kts 198°
2026-05-06 14:12 53.79740 16.28220 35818 ft 419 kts 198°
2026-05-06 14:13 53.74125 16.25662 35815 ft 418 kts 198°
2026-05-06 14:13 53.68500 16.23115 35808 ft 418 kts 198°
2026-05-06 14:14 53.62915 16.20592 35793 ft 417 kts 198°
2026-05-06 14:14 53.57309 16.18060 35801 ft 417 kts 198°
2026-05-06 14:15 53.51701 16.15546 35801 ft 416 kts 198°
2026-05-06 14:15 53.46105 16.13037 35801 ft 416 kts 198°
2026-05-06 14:16 53.40512 16.10525 35787 ft 416 kts 198°
2026-05-06 14:16 53.34923 16.08023 35791 ft 416 kts 198°
2026-05-06 14:17 53.29330 16.05538 35796 ft 415 kts 198°
2026-05-06 14:17 53.23781 16.03085 35794 ft 415 kts 198°
2026-05-06 14:18 53.18200 16.00614 35799 ft 415 kts 198°
2026-05-06 14:18 53.12612 15.98144 35789 ft 415 kts 198°
2026-05-06 14:19 53.07034 15.95686 35790 ft 414 kts 198°
2026-05-06 14:19 53.01453 15.93236 35787 ft 414 kts 198°
2026-05-06 14:20 52.95884 15.90800 35795 ft 414 kts 198°
2026-05-06 14:20 52.90305 15.88361 35784 ft 414 kts 198°
2026-05-06 14:21 52.84764 15.85944 35793 ft 414 kts 198°
2026-05-06 14:21 52.79193 15.83519 35797 ft 414 kts 198°
2026-05-06 14:22 52.73618 15.81109 35804 ft 414 kts 198°
2026-05-06 14:22 52.68041 15.78698 35787 ft 414 kts 198°
2026-05-06 14:23 52.62462 15.76296 35785 ft 415 kts 198°
2026-05-06 14:23 52.56875 15.73903 35791 ft 415 kts 198°
2026-05-06 14:24 52.51286 15.71501 35798 ft 415 kts 198°
2026-05-06 14:24 52.45692 15.69106 35803 ft 416 kts 198°
2026-05-06 14:25 52.40096 15.66716 35800 ft 415 kts 198°
2026-05-06 14:25 52.34495 15.64327 35798 ft 415 kts 198°
2026-05-06 14:26 52.28900 15.61949 35794 ft 415 kts 198°
2026-05-06 14:26 52.23343 15.59595 35790 ft 415 kts 198°
2026-05-06 14:27 52.17746 15.57238 35786 ft 415 kts 198°
2026-05-06 14:27 52.12157 15.54883 35794 ft 414 kts 198°
2026-05-06 14:28 52.06575 15.52536 35799 ft 414 kts 198°
2026-05-06 14:28 52.00998 15.50200 35808 ft 414 kts 198°
2026-05-06 14:29 51.95416 15.47878 35802 ft 413 kts 198°
2026-05-06 14:29 51.89849 15.45561 35811 ft 412 kts 198°
2026-05-06 14:30 51.84340 15.43280 35809 ft 411 kts 198°
2026-05-06 14:30 51.78798 15.40980 35809 ft 411 kts 198°
2026-05-06 14:31 51.73270 15.38694 35792 ft 410 kts 197°
2026-05-06 14:31 51.67739 15.36414 35796 ft 410 kts 197°
2026-05-06 14:32 51.62212 15.34132 35793 ft 410 kts 197°
2026-05-06 14:32 51.56677 15.31858 35792 ft 410 kts 197°
2026-05-06 14:33 51.51151 15.29588 35794 ft 410 kts 197°
2026-05-06 14:33 51.45626 15.27332 35781 ft 410 kts 197°
2026-05-06 14:34 51.40102 15.25085 35789 ft 409 kts 197°
2026-05-06 14:34 51.34580 15.22841 35779 ft 409 kts 197°
2026-05-06 14:35 51.29058 15.20607 35760 ft 410 kts 197°
2026-05-06 14:35 51.23523 15.18364 35763 ft 410 kts 197°
2026-05-06 14:36 51.17978 15.16137 35766 ft 411 kts 197°
2026-05-06 14:36 51.12474 15.13921 35769 ft 411 kts 197°
2026-05-06 14:37 51.06940 15.11693 35774 ft 411 kts 197°
2026-05-06 14:37 51.01392 15.09468 35767 ft 411 kts 197°
2026-05-06 14:38 50.95866 15.07130 35774 ft 411 kts 198°
2026-05-06 14:38 50.90352 15.04688 35774 ft 411 kts 198°
2026-05-06 14:39 50.84838 15.02256 35776 ft 411 kts 198°
2026-05-06 14:39 50.79322 14.99868 35779 ft 411 kts 198°
2026-05-06 14:40 50.73796 14.97494 35783 ft 411 kts 198°
2026-05-06 14:40 50.71035 14.96299 36032 ft 411 kts 198°
2026-05-06 14:40 50.68315 14.95121 36315 ft 410 kts 198°
2026-05-06 14:41 50.66460 14.94319 36483 ft 410 kts 198°
2026-05-06 14:41 50.63704 14.93132 36720 ft 411 kts 198°
2026-05-06 14:41 50.60949 14.91949 36939 ft 411 kts 198°
2026-05-06 14:41 50.58195 14.90770 37200 ft 410 kts 198°
2026-05-06 14:42 50.55438 14.89590 37432 ft 410 kts 198°
2026-05-06 14:42 50.52686 14.88411 37654 ft 410 kts 198°
2026-05-06 14:42 50.49936 14.87234 37772 ft 411 kts 198°
2026-05-06 14:42 50.47182 14.86037 37782 ft 410 kts 199°
2026-05-06 14:43 50.41740 14.83340 37779 ft 410 kts 201°
2026-05-06 14:43 50.36342 14.80474 37778 ft 408 kts 201°
2026-05-06 14:44 50.30958 14.77668 37783 ft 408 kts 201°
2026-05-06 14:45 50.22864 14.73572 37785 ft 408 kts 200°
2026-05-06 14:45 50.17460 14.70864 37788 ft 408 kts 200°
2026-05-06 14:46 50.12096 14.68174 37791 ft 408 kts 200°
2026-05-06 14:46 50.06691 14.65455 37793 ft 408 kts 200°
2026-05-06 14:47 50.01278 14.62739 37795 ft 409 kts 200°
2026-05-06 14:47 49.95873 14.60021 37794 ft 409 kts 200°
2026-05-06 14:48 49.90447 14.57318 37786 ft 408 kts 200°
2026-05-06 14:48 49.85044 14.54635 37786 ft 408 kts 200°
2026-05-06 14:49 49.79643 14.51946 37787 ft 407 kts 200°
2026-05-06 14:49 49.74241 14.49270 37785 ft 407 kts 200°
2026-05-06 14:50 49.68841 14.46599 37775 ft 407 kts 200°
2026-05-06 14:50 49.63439 14.43932 37781 ft 407 kts 200°
2026-05-06 14:51 49.58040 14.41275 37781 ft 407 kts 200°
2026-05-06 14:51 49.52641 14.38626 37775 ft 407 kts 200°
2026-05-06 14:52 49.47245 14.35980 37780 ft 406 kts 200°
2026-05-06 14:52 49.41895 14.33361 37779 ft 406 kts 200°
2026-05-06 14:53 49.36514 14.30743 37779 ft 405 kts 200°
2026-05-06 14:53 49.31133 14.28127 37774 ft 405 kts 200°
2026-05-06 14:54 49.25752 14.25513 37743 ft 405 kts 200°
2026-05-06 14:54 49.20368 14.22895 37746 ft 406 kts 200°
2026-05-06 14:55 49.14979 14.20288 37748 ft 406 kts 200°
2026-05-06 14:55 49.09585 14.17698 37752 ft 407 kts 200°
2026-05-06 14:56 49.04204 14.15119 37729 ft 408 kts 200°
2026-05-06 14:56 48.98781 14.12516 37735 ft 409 kts 200°
2026-05-06 14:57 48.93336 14.09914 37738 ft 410 kts 200°
2026-05-06 14:57 48.87897 14.07309 37737 ft 410 kts 200°
2026-05-06 14:58 48.82453 14.04703 37749 ft 410 kts 200°
2026-05-06 14:58 48.77006 14.02118 37760 ft 410 kts 199°
2026-05-06 14:59 48.71557 13.99543 37759 ft 410 kts 200°
2026-05-06 14:59 48.66284 13.96373 37757 ft 407 kts 207°
2026-05-06 15:00 48.61179 13.92645 37761 ft 407 kts 207°
2026-05-06 15:00 48.56111 13.88975 37757 ft 406 kts 207°
2026-05-06 15:01 48.50985 13.85259 37751 ft 406 kts 207°
2026-05-06 15:01 48.45916 13.81601 37744 ft 406 kts 207°
2026-05-06 15:02 48.40827 13.77933 37751 ft 405 kts 207°
2026-05-06 15:02 48.35759 13.74282 37752 ft 404 kts 207°
2026-05-06 15:03 48.30685 13.70640 37742 ft 403 kts 207°
2026-05-06 15:03 48.25621 13.67028 37731 ft 403 kts 207°
2026-05-06 15:04 48.20561 13.63421 37737 ft 402 kts 207°
2026-05-06 15:04 48.15517 13.59816 37739 ft 402 kts 207°
2026-05-06 15:05 48.10465 13.56220 37736 ft 401 kts 207°
2026-05-06 15:05 48.05418 13.52644 37734 ft 401 kts 207°
2026-05-06 15:06 48.00374 13.49070 37730 ft 401 kts 207°
2026-05-06 15:06 47.95330 13.45504 37730 ft 401 kts 207°
2026-05-06 15:07 47.90313 13.41971 37727 ft 401 kts 207°
2026-05-06 15:07 47.85265 13.38418 37720 ft 401 kts 207°
2026-05-06 15:08 47.80215 13.34871 37729 ft 401 kts 207°
2026-05-06 15:08 47.75175 13.31337 37724 ft 401 kts 207°
2026-05-06 15:09 47.70122 13.27809 37729 ft 401 kts 207°
2026-05-06 15:09 47.65065 13.24284 37716 ft 401 kts 207°
2026-05-06 15:10 47.60011 13.20758 37732 ft 401 kts 207°
2026-05-06 15:10 47.54962 13.17255 37743 ft 401 kts 207°
2026-05-06 15:11 47.49921 13.13766 37708 ft 399 kts 207°
2026-05-06 15:11 47.44864 13.10266 37756 ft 402 kts 207°
2026-05-06 15:12 47.39843 13.06801 37766 ft 400 kts 207°
2026-05-06 15:12 47.34803 13.03337 37776 ft 399 kts 207°
2026-05-06 15:13 47.29776 12.99884 37782 ft 398 kts 207°
2026-05-06 15:13 47.24764 12.96437 37746 ft 398 kts 207°
2026-05-06 15:14 47.19744 12.92994 37763 ft 399 kts 207°
2026-05-06 15:14 47.14707 12.89552 37793 ft 400 kts 207°
2026-05-06 15:15 47.09658 12.86114 37803 ft 400 kts 207°
2026-05-06 15:15 47.04591 12.82680 37787 ft 402 kts 207°
2026-05-06 15:16 46.99532 12.79258 37822 ft 404 kts 207°
2026-05-06 15:16 46.94380 12.75761 37823 ft 406 kts 207°
2026-05-06 15:17 46.89291 12.72317 37839 ft 407 kts 207°
2026-05-06 15:17 46.84140 12.68837 37863 ft 407 kts 207°
2026-05-06 15:18 46.78989 12.65369 37884 ft 409 kts 207°
2026-05-06 15:18 46.73822 12.61904 37905 ft 408 kts 207°
2026-05-06 15:19 46.68470 12.59117 37903 ft 412 kts 194°
2026-05-06 15:19 46.62834 12.57501 37922 ft 413 kts 195°
2026-05-06 15:20 46.57196 12.55872 37913 ft 412 kts 195°
2026-05-06 15:20 46.51596 12.54263 37916 ft 413 kts 195°
2026-05-06 15:21 46.45959 12.52635 37905 ft 412 kts 195°
2026-05-06 15:21 46.40335 12.51005 37923 ft 412 kts 195°
2026-05-06 15:22 46.34713 12.49399 37919 ft 412 kts 195°
2026-05-06 15:22 46.29091 12.47806 37923 ft 411 kts 194°
2026-05-06 15:22 46.26283 12.47003 37744 ft 410 kts 195°
2026-05-06 15:23 46.23498 12.46210 37474 ft 408 kts 195°
2026-05-06 15:23 46.20713 12.45420 37221 ft 407 kts 195°
2026-05-06 15:23 46.17932 12.44633 37001 ft 408 kts 196°
2026-05-06 15:23 46.15147 12.43843 36878 ft 405 kts 195°
2026-05-06 15:24 46.12372 12.43055 36919 ft 406 kts 195°
2026-05-06 15:24 46.06826 12.41485 36917 ft 406 kts 195°
2026-05-06 15:25 46.01276 12.39912 36917 ft 407 kts 195°
2026-05-06 15:25 45.95720 12.38343 36916 ft 407 kts 195°
2026-05-06 15:26 45.90206 12.36786 36914 ft 407 kts 195°
2026-05-06 15:26 45.84657 12.35227 36914 ft 405 kts 195°
2026-05-06 15:27 45.79117 12.33682 36912 ft 405 kts 195°
2026-05-06 15:27 45.73587 12.32127 36909 ft 405 kts 195°
2026-05-06 15:28 45.68057 12.30574 36891 ft 404 kts 195°
2026-05-06 15:28 45.62540 12.29037 36893 ft 403 kts 195°
2026-05-06 15:29 45.57034 12.27506 36893 ft 403 kts 195°
2026-05-06 15:29 45.52463 12.26231 36893 ft 403 kts 195°
2026-05-06 15:30 45.46963 12.24704 36890 ft 402 kts 195°
2026-05-06 15:30 45.41474 12.23180 36893 ft 402 kts 195°
2026-05-06 15:31 45.35992 12.21669 36893 ft 402 kts 195°
2026-05-06 15:31 45.30500 12.20162 36875 ft 402 kts 195°
2026-05-06 15:32 45.22247 12.17903 36891 ft 402 kts 195°
2026-05-06 15:32 45.16745 12.16398 36888 ft 402 kts 195°
2026-05-06 15:33 45.11245 12.14887 36869 ft 403 kts 195°
2026-05-06 15:33 45.05720 12.13369 36885 ft 405 kts 195°
2026-05-06 15:34 45.00410 12.10993 36885 ft 398 kts 210°
2026-05-06 15:34 44.95863 12.06658 36886 ft 393 kts 223°
2026-05-06 15:35 44.91729 12.01581 36881 ft 395 kts 218°
2026-05-06 15:35 44.87204 11.97246 36887 ft 395 kts 216°
2026-05-06 15:36 44.82629 11.92905 36486 ft 399 kts 216°
2026-05-06 15:36 44.80329 11.90716 35817 ft 398 kts 216°
2026-05-06 15:36 44.78039 11.88536 35168 ft 397 kts 216°
2026-05-06 15:37 44.75757 11.86362 34525 ft 395 kts 216°
2026-05-06 15:37 44.73488 11.84205 33969 ft 392 kts 216°
2026-05-06 15:37 44.71229 11.82065 33345 ft 391 kts 216°
2026-05-06 15:37 44.68971 11.79927 32712 ft 391 kts 216°
2026-05-06 15:38 44.66713 11.77789 32101 ft 391 kts 215°
2026-05-06 15:38 44.64455 11.75650 31485 ft 392 kts 216°
2026-05-06 15:38 44.62193 11.73506 30870 ft 393 kts 216°
2026-05-06 15:38 44.59918 11.71361 30296 ft 395 kts 216°
2026-05-06 15:39 44.57635 11.69213 29662 ft 396 kts 215°
2026-05-06 15:39 44.55220 11.67313 28987 ft 401 kts 207°
2026-05-06 15:39 44.52580 11.65967 28329 ft 408 kts 199°
2026-05-06 15:39 44.49829 11.64951 27680 ft 408 kts 198°
2026-05-06 15:40 44.47126 11.63949 27066 ft 406 kts 198°
2026-05-06 15:40 44.44365 11.62922 26445 ft 404 kts 198°
2026-05-06 15:40 44.41683 11.61919 25857 ft 403 kts 198°
2026-05-06 15:40 44.38984 11.60908 25243 ft 402 kts 199°
2026-05-06 15:41 44.36292 11.59901 24674 ft 402 kts 199°
2026-05-06 15:41 44.33591 11.58896 24114 ft 401 kts 198°
2026-05-06 15:41 44.30900 11.57898 23564 ft 400 kts 198°
2026-05-06 15:41 44.28211 11.56906 22930 ft 398 kts 198°
2026-05-06 15:42 44.25478 11.56299 22298 ft 400 kts 188°
2026-05-06 15:42 44.22703 11.56053 21667 ft 397 kts 188°
2026-05-06 15:42 44.19957 11.55803 21050 ft 395 kts 188°
2026-05-06 15:42 44.17226 11.55546 20446 ft 392 kts 188°
2026-05-06 15:43 44.14511 11.55284 19915 ft 389 kts 188°
2026-05-06 15:43 44.11818 11.55023 19405 ft 387 kts 188°
2026-05-06 15:43 44.09153 11.54767 18892 ft 384 kts 188°
2026-05-06 15:43 44.06490 11.54515 18406 ft 383 kts 187°
2026-05-06 15:44 44.03842 11.54262 17878 ft 380 kts 188°
2026-05-06 15:44 44.01272 11.53589 17307 ft 372 kts 200°
2026-05-06 15:44 43.98925 11.52183 16760 ft 365 kts 211°
2026-05-06 15:44 43.96870 11.50167 16218 ft 360 kts 220°
2026-05-06 15:45 43.94955 11.48009 15701 ft 357 kts 220°
2026-05-06 15:45 43.93029 11.45854 15182 ft 353 kts 219°
2026-05-06 15:45 43.91126 11.43727 14679 ft 349 kts 219°
2026-05-06 15:45 43.89241 11.41622 14177 ft 346 kts 219°
2026-05-06 15:46 43.87373 11.39535 13665 ft 342 kts 219°
2026-05-06 15:46 43.85523 11.37472 13110 ft 340 kts 219°
2026-05-06 15:46 43.83692 11.35435 12536 ft 333 kts 219°
2026-05-06 15:46 43.81926 11.33471 11977 ft 324 kts 219°
2026-05-06 15:47 43.80191 11.31540 11424 ft 316 kts 219°
2026-05-06 15:47 43.78493 11.29649 10897 ft 309 kts 219°
2026-05-06 15:47 43.76835 11.27805 10359 ft 302 kts 219°
2026-05-06 15:47 43.75212 11.26001 9834 ft 295 kts 219°
2026-05-06 15:48 43.73619 11.24233 9224 ft 291 kts 219°
2026-05-06 15:48 43.72063 11.22507 8649 ft 282 kts 219°
2026-05-06 15:48 43.70571 11.20853 8096 ft 274 kts 219°
2026-05-06 15:48 43.69137 11.19167 7542 ft 267 kts 226°
2026-05-06 15:49 43.67901 11.17288 6995 ft 261 kts 227°
2026-05-06 15:49 43.66689 11.15443 6444 ft 257 kts 227°
2026-05-06 15:49 43.65488 11.13619 5894 ft 254 kts 227°
2026-05-06 15:49 43.64300 11.11817 5325 ft 252 kts 227°
2026-05-06 15:50 43.63137 11.10051 4900 ft 246 kts 227°
2026-05-06 15:50 43.62133 11.08235 4500 ft 238 kts 243°
2026-05-06 15:50 43.61729 11.06066 4093 ft 233 kts 267°
2026-05-06 15:50 43.62041 11.03886 3688 ft 233 kts 291°
2026-05-06 15:51 43.63006 11.02103 3283 ft 234 kts 314°
2026-05-06 15:51 43.64222 11.00621 3031 ft 230 kts 314°
2026-05-06 15:51 43.65463 10.99318 2994 ft 221 kts 333°
2026-05-06 15:51 43.66949 10.99238 3002 ft 215 kts 19°
2026-05-06 15:52 43.68090 11.00507 3050 ft 211 kts 49°
2026-05-06 15:52 43.69021 11.02015 3016 ft 207 kts 49°
2026-05-06 15:52 43.69967 11.03500 3021 ft 202 kts 47°
2026-05-06 15:52 43.70907 11.04949 2912 ft 202 kts 48°
2026-05-06 15:53 43.71847 11.06397 2687 ft 203 kts 47°
2026-05-06 15:53 43.72790 11.07846 2431 ft 202 kts 47°
2026-05-06 15:53 43.73716 11.09270 2165 ft 199 kts 47°
2026-05-06 15:53 43.74623 11.10667 1897 ft 187 kts 48°
2026-05-06 15:54 43.75446 11.11934 1664 ft 167 kts 47°
2026-05-06 15:54 43.76189 11.13077 1443 ft 155 kts 46°
2026-05-06 15:54 43.76882 11.14144 1232 ft 145 kts 46°
2026-05-06 15:54 43.77552 11.15179 1039 ft 141 kts 47°
2026-05-06 15:55 43.78189 11.16159 863 ft 137 kts 46°
2026-05-06 15:55 43.78815 11.17127 709 ft 132 kts 46°
2026-05-06 15:55 43.79429 11.18086 484 ft 134 kts 46°
2026-05-06 15:55 43.80053 11.19050 310 ft 136 kts 47°
2026-05-06 15:56 43.80684 11.20017 143 ft 130 kts 46°
2026-05-06 15:56 43.81192 11.20795 128 ft 74 kts 48°
2026-05-06 15:56 43.81385 11.21096 133 ft 26 kts 48°
2026-05-06 15:56 43.81474 11.21271 132 ft 21 kts 72°
2026-05-06 15:57 43.81517 11.21292 134 ft 10 kts 217°
2026-05-06 15:57 43.81457 11.21206 133 ft 14 kts 229°
2026-05-06 15:57 43.81389 11.21099 133 ft 16 kts 228°
2026-05-06 15:57 43.81309 11.20975 133 ft 18 kts 229°
2026-05-06 15:58 43.81220 11.20838 130 ft 21 kts 227°
2026-05-06 15:58 43.81112 11.20675 127 ft 26 kts 228°
2026-05-06 15:58 43.80970 11.20455 128 ft 35 kts 228°
2026-05-06 15:58 43.80800 11.20190 132 ft 38 kts 227°
2026-05-06 15:59 43.80661 11.20029 132 ft 20 kts 193°
2026-05-06 15:59 43.80546 11.19989 133 ft 14 kts 192°
2026-05-06 15:59 43.80477 11.20045 133 ft 12 kts 161°
2026-05-06 15:59 43.80401 11.20037 130 ft 11 kts 187°
2026-05-06 16:00 43.80351 11.20003 125 ft 5 kts 209°
2026-05-06 16:00 43.80311 11.20024 127 ft 8 kts 159°
2026-05-06 16:00 43.80296 11.20032 123 ft 0 kts 159°